Location: Fort Collins
(40.5850°N, 105.0840°W)
Time: 06:02:16
(UTC-06:00)

Cosmos 2297 Rocket - Visible Passes

Search period start: 22 October 2017 00:00
Search period end: 01 November 2017 00:00
Orbit: 840 x 843 km, 71.0° (Epoch: 21 October)

Date Brightness Start Highest point End Pass type
(mag) Time Alt. Az. Time Alt. Az. Time Alt. Az.
22 Oct 4.3 04:58:50 10° N 05:03:23 24° NE 05:07:53 10° ESE visible
22 Oct 2.4 06:42:16 10° NNW 06:47:43 51° WSW 06:53:08 10° S visible
22 Oct 2.3 19:49:05 10° S 19:54:27 48° ESE 19:56:00 38° ENE visible
22 Oct 4.1 21:34:05 10° WSW 21:37:56 25° WNW 21:37:56 25° WNW visible
23 Oct 4.3 04:43:48 10° N 04:48:14 23° NE 04:52:39 10° ESE visible
23 Oct 2.3 06:27:07 10° NNW 06:32:37 54° WSW 06:38:05 10° S visible
23 Oct 2.4 19:34:03 10° S 19:39:23 45° ESE 19:42:52 21° NE visible
23 Oct 4.0 21:18:51 10° WSW 21:23:35 27° NW 21:24:47 25° NW visible
24 Oct 4.4 04:28:46 10° N 04:33:06 22° NE 04:37:24 10° ESE visible
24 Oct 2.2 06:12:00 10° NNW 06:17:32 57° WSW 06:23:01 10° S visible
24 Oct 2.5 19:19:01 10° S 19:24:18 42° ESE 19:29:28 11° NE visible
24 Oct 4.0 21:03:39 10° WSW 21:08:27 28° NW 21:11:22 19° NNW visible
25 Oct 4.4 04:13:44 10° N 04:17:57 21° NE 04:22:09 10° E visible
25 Oct 2.2 05:56:52 10° NNW 06:02:26 61° WSW 06:07:58 10° S visible
25 Oct 2.6 19:03:59 10° S 19:09:12 40° ESE 19:14:27 10° NE visible
25 Oct 3.9 20:48:26 10° WSW 20:53:19 30° WNW 20:57:42 12° N visible
26 Oct 4.4 04:00:27 16° NNE 04:02:49 20° NE 04:06:53 10° E visible
26 Oct 2.1 05:42:22 13° NNW 05:47:21 64° WSW 05:52:53 10° S visible
26 Oct 2.7 18:48:58 10° S 18:54:07 38° ESE 18:59:18 10° NE visible
26 Oct 3.8 20:33:14 10° WSW 20:38:11 31° WNW 20:43:11 10° N visible
27 Oct 4.5 03:47:28 19° NE 03:47:40 19° NE 03:51:37 10° E visible
27 Oct 2.1 05:29:24 30° NW 05:32:15 68° WSW 05:37:50 10° SSE visible
27 Oct 2.8 18:33:57 10° S 18:39:01 36° ESE 18:44:08 10° NE visible
27 Oct 3.8 20:18:02 10° WSW 20:23:04 32° WNW 20:28:08 10° N visible
28 Oct 4.7 03:34:33 15° ENE 03:34:33 15° ENE 03:36:21 10° E visible
28 Oct 2.0 05:16:30 65° WNW 05:17:09 72° WSW 05:22:45 10° SSE visible
28 Oct 2.9 18:18:56 10° SSE 18:23:57 34° ESE 18:28:59 10° NE visible
28 Oct 3.7 20:02:49 10° WSW 20:07:56 34° WNW 20:13:04 10° N visible
29 Oct 2.6 05:03:35 49° S 05:03:35 49° S 05:07:40 10° SSE visible
29 Oct 3.6 19:47:38 10° SW 19:52:48 36° WNW 19:57:59 10° N visible
30 Oct 3.8 04:50:36 23° SSE 04:50:36 23° SSE 04:52:35 10° SSE visible
30 Oct 3.6 19:32:28 10° SW 19:37:40 38° WNW 19:42:55 10° N visible
31 Oct 3.5 19:17:16 10° SW 19:22:32 40° WNW 19:27:50 10° N visible
